Regional Weather Roundup
Issued by NWS Jackson, KY

Home | Current Version | Previous Version | Graphics & Text | Print | Product List | Glossary On
Versions: 1 2 3 4 5 6 7 8 9 10 11 12 13 14 15 16 17 18 19 20 21 22 23 24 25 26 27 28 29 30 31 32 33 34 35 36 37 38 39 40 41 42 43 44 45 46 47 48 49 50
840
ASUS43 KJKL 280810
RWRJKL

EAST KENTUCKY HOURLY WEATHER ROUNDUP
NATIONAL WEATHER SERVICE JACKSON KY
400 AM EDT THU APR 28 2016

NOTE: "FAIR" INDICATES FEW OR NO CLOUDS BELOW 12,000 FEET WITH
NO SIGNIFICANT WEATHER AND/OR OBSTRUCTIONS TO VISIBILITY.

* THESE REPORTS ARE NOT UNDER NWS QUALITY CONTROL AND MAY NOT
  REPORT WEATHER SUCH AS PRECIPITATION AND FOG.

KYZ079-080-083-085-087-088-110-112-115-119-120-280900
...EASTERN KENTUCKY...

CITY           SKY/WX    TMP DP  RH WIND       PRES   REMARKS
JACKSON        FOG       59  58  96 CALM      29.84F VSB 3/4
LONDON         TSTM      60  58  92 S3        29.84R
SOMERSET*      LGT RAIN  59  59 100 SE5       29.81F
MONTICELLO*    CLOUDY    63  61  93 E8        29.82F
WILLIAMSBURG*  PTSUNNY   59  59 100 SE3       29.83S
MIDDLESBORO*   LGT RAIN  61  61 100 CALM      29.86S
HARLAN APT*    CLOUDY    61  59  94 CALM      29.86S
HAZARD APT*    FOG       59  59 100 CALM      29.84F VSB 3/4
BLACK MTN*       N/A     54  54 100 W2          N/A
PIKE CO APT*   RAIN      57  57 100 SE5       29.87F
BIG SANDY APT* LGT RAIN  60  60  99 S5        29.85F
MOREHEAD APT*  FOG       59  59 100 S5        29.83F VSB 1
$$

KYZ035-036-041-042-044-050-067-078-099-280900
...CENTRAL KENTUCKY...

CITY           SKY/WX    TMP DP  RH WIND       PRES   REMARKS
MT STERLING*   CLOUDY    59  59 100 S5        29.82F FOG
FLEMING/MASON* CLOUDY    60  59  99 CALM      29.81F
DANVILLE*      CLOUDY    59  59 100 SE5       29.81F
RICHMOND*      CLOUDY    59  57  94 SE3       29.80F
LEXINGTON      CLOUDY    60  59  96 SE7       29.79F FOG
FRANKFORT      MOCLDY    60  58  92 S8        29.77F
LOUISVILLE     CLOUDY    62  60  93 SE9       29.76S
LEBANON*         N/A     59  59 100 E3        29.79R
BOWLING GREEN  CLOUDY    65  63  93 S3        29.76F
$$

KYZ091>093-OHZ055-061-077-WVZ005-015-034-035-042-280900
...SOUTHERN OHIO/WEST VIRGINIA...

CITY           SKY/WX    TMP DP  RH WIND       PRES   REMARKS
COVINGTON      FOG       60  59  96 E3        29.77F VSB 1/2
COLUMBUS       CLOUDY    53  45  74 NE5       29.82F
DAYTON         CLOUDY    51  50  96 NE8       29.81F FOG
WILMINGTON     LGT RAIN  54  53  97 E8        29.78F FOG
HUNTINGTON     RAIN      63  61  93 SW8       29.80F
CHARLESTON     LGT RAIN  63  61  93 SW7       29.84R VSB 1/8
PINEVILLE*     CLOUDY    61  58  91 MISG      29.93S FOG
BECKLEY        LGT RAIN  61  58  90 W9        29.89R FOG
$$

VAZ002-007-008-TNZ017-027-036-066-071-280900
...SOUTHWEST VIRGINIA/EAST TENNESSEE...

CITY           SKY/WX    TMP DP  RH WIND       PRES   REMARKS
WISE*          LGT RAIN  59  57  94 SE5       29.93F
BRISTOL        TSTM      61  60  97 E5        29.88F
MORRISTOWN*    CLOUDY    63  63 100 SE5       29.85F
SEVIERVILLE*   SUNNY     63  63 100 CALM      29.84S
KNOXVILLE      PTCLDY    64  63  96 N3        29.83S FOG
OAK RIDGE      CLOUDY    64  62  93 CALM      29.84F
CROSSVILLE     PTCLDY    63  59  87 CALM      29.85F
NASHVILLE      PTCLDY    67  62  84 SW6       29.78S
$$

...KEY TO REMARKS...
VSB - VISIBILITY IN MILES
WCI - WIND CHILL INDEX
HX  - HEAT INDEX

$$




USA.gov is the U.S. government's official web portal to all federal, state and local government web resources and services.